Location: Berlin
(52.5170°N, 13.4000°E)
Time: 16:00:11
(UTC+02:00)

ISS - Pass Details

Date: 15 July 2018
Orbit: 402 x 408 km, 51.6° (Epoch: 23 July)

Event Time Altitude Azimuth Distance (km) Brightness Sun altitude
Exits shadow 03:22:13 - 265° (W) 1,872 -0.8 -10.7°
Reaches altitude 10° 03:23:11 10° 264° (W) 1,471 -1.3 -10.6°
Maximum altitude 03:26:29 78° 180° (S) 422 -3.9 -10.4°
Drops below altitude 10° 03:29:47 10° 92° (E) 1,474 -0.6 -10.1°
Sets 03:31:53 0° 92° (E) 2,336 0.5 -10.0°
